Location: Unspecified
(50.7693°N, 0.0000°E)
Time: 22:11:40
(UTC+00:00)

SR - Pass Details

Date: 26 June 2019
Orbit: 581 x 875 km, 66.7° (Epoch: 15 July)

Event Time Altitude Azimuth Distance (km) Brightness Sun altitude
Rises 01:33:43 0° 162° (SSE) 2,789 - -13.2°
Exits shadow 01:35:41 - 148° (SSE) 2,191 ? -13.1°
Reaches altitude 10° 01:36:59 10° 135° (SE) 1,898 ? -13.0°
Maximum altitude 01:38:57 13° 107° (ESE) 1,717 ? -12.9°
Drops below altitude 10° 01:40:56 10° 79° (E) 1,927 ? -12.8°
Sets 01:44:19 0° 52° (NE) 2,872 ? -12.5°
